Home > Weather > Montpelier > Past weeks

Flag for USA Past Weather in Montpelier, Vermont, USA — Yesterday and Last 2 Weeks

Now
85 °F

Sunny.


Feels Like: 83 °F
Forecast: 53 / 89 °F
Wind: 12 mph from Southwest

Location: Knapp State Airport

Current Time: Jun 26, 2016 at 3:13:04 PM

Latest Report: Jun 26, 2016 at 2:51 PM


Visibility: 10 mi

Pressure: 30.15 "Hg

Humidity: 35%

Dew Point: 54 °F

Location of MontpelierLocation

Past Weather in Montpelier — Graph

°F

Montpelier Temperature Yesterday

Maximum temperature yesterday: 82 °F (at 4:51 PM)
Minimum temperature yesterday: 48 °F (at 4:51 AM)
Average temperature yesterday: 65 °F

High & Low Weather Summary for the Past Weeks

 TemperatureHumidityPressure
High85 °F (Jun 19, 2:51 PM)100% (Jun 11, 10:51 PM)30.32 "Hg (Jun 11, 10:51 PM)
Low44 °F (Jun 17, 3:51 AM)23% (Jun 18, 5:51 PM)29.53 "Hg (Jun 12, 4:51 AM)
Average62 °F66%29.98 "Hg
* Reported Jun 11 12:51 PM — Jun 26 12:51 PM, Montpelier, Weather by CustomWeather, © 2016

Note: Actual official high and low records may vary slightly from our data, if they occured in-between our weather recording intervals... More about our weather records

Advertising

Montpelier Weather History for the Previous 24 Hours

Scroll right to see more
 ConditionsComfort  
Time TempWeatherWind HumidityBarometerVisibility
12:51 PM
Sun, Jun 26
81 °FPartly sunny.7 mph44%30.18 "Hg10 mi
11:51 AM82 °FSunny.9 mph46%30.20 "Hg10 mi
10:51 AM80 °FPassing clouds.7 mph47%30.22 "Hg10 mi
9:51 AM74 °FSunny.No wind62%30.22 "Hg10 mi
8:51 AM68 °FSunny.5 mph70%30.22 "Hg10 mi
7:51 AM63 °FSunny.No wind81%30.24 "Hg10 mi
6:51 AM58 °FSunny.No wind90%30.24 "Hg10 mi
5:51 AM53 °FClear.No wind93%30.23 "Hg10 mi
4:51 AM54 °FClear.No wind93%30.23 "Hg9 mi
3:51 AM54 °FClear.No wind90%30.24 "Hg10 mi
2:51 AM55 °FClear.3 mph87%30.24 "Hg10 mi
1:51 AM55 °FClear.No wind93%30.22 "Hg10 mi
12:51 AM60 °FClear.No wind83%30.20 "Hg10 mi
11:51 PM
Sat, Jun 25
58 °FClear.No wind87%30.20 "Hg10 mi
10:51 PM61 °FClear.3 mph78%30.20 "Hg10 mi
9:51 PM61 °FClear.No wind78%30.21 "Hg10 mi
8:51 PM67 °FSunny.5 mph71%30.20 "Hg10 mi
7:51 PM73 °FSunny.No wind66%30.20 "Hg10 mi
6:51 PM80 °FSunny.No wind39%30.19 "Hg10 mi
5:51 PM78 °FPassing clouds.3 mph45%30.18 "Hg10 mi
4:51 PM82 °FPartly sunny.6 mph35%30.19 "Hg10 mi
3:51 PM80 °FPassing clouds.5 mph36%30.20 "Hg10 mi
Weather by CustomWeather, © 2016

See weather overviewHow to use our weather pages